Retour au catalogue

STARLINK-36688

ActifCommunicationsSSO
NORAD 67656·PAYLOAD·🇺🇸 United States

Lancé Feb 2, 2026 depuis Vandenberg Space Force Base

Loading…

Prochains Passages (prochaines 24 heures)

TLE

FraisSource: CelesTrak SupGP

Époque: Sep 14, 2026, 21:06 UTC

1 67656C 26022J   26257.87965278  .00012592  00000+0  39097-3 0  2572
2 67656  97.2846 289.5825 0000927  95.0783 121.7876 15.33427965    15

Suivez STARLINK-36688 en temps réel avec AllMySat

Download on the App Store